AFR772 KMCO-LFPG

Flight info

Callsign AFR772
Flight time N/A
Altitude 35000
Route JEEMY4 PAINN DCT SHRKS/N0485F350 DCT BERTT DCT GURGE DCT RAYVO Q87 NOWAE DCT FAK DCT BOOYA Q34 RBV Q22 LLUND/N0478F370 DCT BIZEX Q133 CAM DCT BEEHS DCT JIGZY DCT TAFFY N693A NEEKO/M084F370 DCT 5350N DCT 5440N DCT 5430N DCT 5420N DCT DOGAL/N0481F370 DCT BEXET/N0476F390 DCT MORAG DCT NUCHU L18 MID/N0463F290 Y803 SFD UM605 BIBAX
Aircraft B772/H-SDE2E3FGHIJ5LORVWXY/LB1D1

Departure

Time 2026-04-25 11:39
Airport Orlando International Airport (KMCO)

Arrival

Time N/A
Airport Charles de Gaulle International Airport (LFPG)
Time Latitude Longitude Altitude Speed Heading
2026-04-25 10:37 28.42691 -81.30395 106 ft 0 kts 77°
2026-04-25 11:10 28.42689 -81.30407 106 ft 4 kts 83°
2026-04-25 11:10 28.42690 -81.30436 105 ft 4 kts 116°
2026-04-25 11:11 28.42707 -81.30455 104 ft 4 kts 165°
2026-04-25 11:11 28.42733 -81.30458 105 ft 4 kts 189°
2026-04-25 11:11 28.42757 -81.30451 106 ft 1 kts 200°
2026-04-25 11:17 28.42734 -81.30459 105 ft 6 kts 195°
2026-04-25 11:17 28.42692 -81.30463 105 ft 6 kts 178°
2026-04-25 11:18 28.42652 -81.30456 107 ft 6 kts 164°
2026-04-25 11:18 28.42614 -81.30436 107 ft 6 kts 145°
2026-04-25 11:18 28.42583 -81.30406 107 ft 6 kts 147°
2026-04-25 11:18 28.42548 -81.30397 107 ft 0 kts 184°
2026-04-25 11:20 28.42545 -81.30397 108 ft 1 kts 184°
2026-04-25 11:20 28.42539 -81.30397 107 ft 1 kts 184°
2026-04-25 11:20 28.42530 -81.30398 106 ft 2 kts 184°
2026-04-25 11:20 28.42512 -81.30399 106 ft 3 kts 184°
2026-04-25 11:21 28.42491 -81.30401 107 ft 3 kts 184°
2026-04-25 11:21 28.42471 -81.30402 107 ft 3 kts 184°
2026-04-25 11:21 28.42451 -81.30403 106 ft 3 kts 179°
2026-04-25 11:21 28.42429 -81.30402 106 ft 4 kts 179°
2026-04-25 11:22 28.42389 -81.30398 106 ft 7 kts 168°
2026-04-25 11:22 28.42362 -81.30375 107 ft 8 kts 121°
2026-04-25 11:22 28.42357 -81.30307 106 ft 5 kts 88°
2026-04-25 11:22 28.42358 -81.30268 107 ft 5 kts 88°
2026-04-25 11:23 28.42360 -81.30228 107 ft 5 kts 88°
2026-04-25 11:23 28.42361 -81.30189 107 ft 5 kts 88°
2026-04-25 11:23 28.42354 -81.30153 106 ft 5 kts 132°
2026-04-25 11:23 28.42320 -81.30143 107 ft 5 kts 172°
2026-04-25 11:24 28.42289 -81.30156 107 ft 5 kts 234°
2026-04-25 11:24 28.42277 -81.30195 106 ft 5 kts 257°
2026-04-25 11:24 28.42274 -81.30237 106 ft 5 kts 267°
2026-04-25 11:24 28.42273 -81.30279 106 ft 6 kts 271°
2026-04-25 11:25 28.42274 -81.30340 106 ft 10 kts 271°
2026-04-25 11:25 28.42272 -81.30437 105 ft 14 kts 267°
2026-04-25 11:25 28.42263 -81.30548 109 ft 14 kts 265°
2026-04-25 11:25 28.42255 -81.30660 109 ft 14 kts 265°
2026-04-25 11:26 28.42246 -81.30771 109 ft 14 kts 265°
2026-04-25 11:26 28.42238 -81.30887 106 ft 15 kts 265°
2026-04-25 11:26 28.42234 -81.31004 108 ft 15 kts 271°
2026-04-25 11:26 28.42237 -81.31061 106 ft 6 kts 275°
2026-04-25 11:27 28.42245 -81.31109 106 ft 5 kts 281°
2026-04-25 11:27 28.42246 -81.31118 105 ft 0 kts 281°
2026-04-25 11:29 28.42247 -81.31124 105 ft 2 kts 281°
2026-04-25 11:29 28.42254 -81.31162 105 ft 10 kts 281°
2026-04-25 11:29 28.42265 -81.31254 104 ft 12 kts 274°
2026-04-25 11:30 28.42267 -81.31350 105 ft 12 kts 271°
2026-04-25 11:30 28.42269 -81.31446 106 ft 12 kts 271°
2026-04-25 11:30 28.42266 -81.31545 106 ft 13 kts 268°
2026-04-25 11:30 28.42264 -81.31648 107 ft 13 kts 270°
2026-04-25 11:31 28.42264 -81.31751 109 ft 13 kts 270°
2026-04-25 11:31 28.42263 -81.31855 110 ft 13 kts 270°
2026-04-25 11:31 28.42264 -81.31945 111 ft 8 kts 276°
2026-04-25 11:31 28.42298 -81.31991 111 ft 8 kts 340°
2026-04-25 11:32 28.42358 -81.31990 111 ft 10 kts
2026-04-25 11:32 28.42433 -81.31988 112 ft 12 kts 359°
2026-04-25 11:32 28.42540 -81.31990 112 ft 18 kts 359°
2026-04-25 11:32 28.42682 -81.31992 110 ft 23 kts 359°
2026-04-25 11:33 28.42846 -81.31991 108 ft 23 kts
2026-04-25 11:33 28.43005 -81.31992 106 ft 23 kts 357°
2026-04-25 11:33 28.43167 -81.31997 106 ft 23 kts 359°
2026-04-25 11:33 28.43329 -81.31997 107 ft 23 kts 360°
2026-04-25 11:34 28.43491 -81.32001 108 ft 23 kts 358°
2026-04-25 11:34 28.43652 -81.32002 109 ft 23 kts
2026-04-25 11:34 28.43814 -81.32003 112 ft 23 kts
2026-04-25 11:34 28.43976 -81.32004 113 ft 23 kts 359°
2026-04-25 11:35 28.44135 -81.32006 113 ft 19 kts 359°
2026-04-25 11:35 28.44223 -81.32007 110 ft 19 kts 359°
2026-04-25 11:35 28.44352 -81.32009 111 ft 16 kts 359°
2026-04-25 11:35 28.44462 -81.32010 109 ft 16 kts 359°
2026-04-25 11:36 28.44571 -81.32011 107 ft 16 kts 359°
2026-04-25 11:36 28.44680 -81.32012 107 ft 16 kts 359°
2026-04-25 11:36 28.44783 -81.32017 107 ft 11 kts 346°
2026-04-25 11:36 28.44823 -81.32085 106 ft 11 kts 274°
2026-04-25 11:37 28.44823 -81.32175 107 ft 11 kts 267°
2026-04-25 11:37 28.44800 -81.32229 107 ft 8 kts 203°
2026-04-25 11:37 28.44765 -81.32231 106 ft 0 kts 178°
2026-04-25 11:38 28.44751 -81.32230 107 ft 16 kts 178°
2026-04-25 11:38 28.44388 -81.32224 110 ft 88 kts 180°
2026-04-25 11:38 28.43557 -81.32216 108 ft 151 kts 180°
2026-04-25 11:38 28.42353 -81.32198 333 ft 180 kts 179°
2026-04-25 11:39 28.41131 -81.32175 1138 ft 175 kts 185°
2026-04-25 11:39 28.39903 -81.32574 1319 ft 199 kts 206°
2026-04-25 11:39 28.38601 -81.33271 1509 ft 216 kts 203°
2026-04-25 11:39 28.37271 -81.33906 1832 ft 226 kts 202°
2026-04-25 11:40 28.35737 -81.34621 2086 ft 244 kts 202°
2026-04-25 11:40 28.34132 -81.35369 2484 ft 254 kts 202°
2026-04-25 11:40 28.32477 -81.36149 2969 ft 259 kts 205°
2026-04-25 11:40 28.31022 -81.37370 3360 ft 266 kts 232°
2026-04-25 11:41 28.30250 -81.39237 3922 ft 266 kts 258°
2026-04-25 11:41 28.29975 -81.41314 4434 ft 269 kts 263°
2026-04-25 11:41 28.29733 -81.43431 4991 ft 271 kts 263°
2026-04-25 11:41 28.29490 -81.45553 5610 ft 271 kts 263°
2026-04-25 11:42 28.29271 -81.47685 6132 ft 272 kts 269°
2026-04-25 11:42 28.29585 -81.49718 6512 ft 276 kts 296°
2026-04-25 11:42 28.30723 -81.51454 6947 ft 276 kts 318°
2026-04-25 11:42 28.32213 -81.52819 6979 ft 280 kts 322°
2026-04-25 11:43 28.33753 -81.54142 6994 ft 278 kts 323°
2026-04-25 11:43 28.35315 -81.55418 6983 ft 273 kts 331°
2026-04-25 11:43 28.37111 -81.56056 7240 ft 273 kts 352°
2026-04-25 11:43 28.39025 -81.56309 7618 ft 279 kts 353°
2026-04-25 11:44 28.40957 -81.56546 8150 ft 280 kts 353°
2026-04-25 11:44 28.42898 -81.56646 8596 ft 281 kts
2026-04-25 11:44 28.44823 -81.56143 9008 ft 286 kts 14°
2026-04-25 11:44 28.46743 -81.55533 9520 ft 287 kts 13°
2026-04-25 11:45 28.48673 -81.54938 10007 ft 288 kts 13°
2026-04-25 11:45 28.50639 -81.54343 10289 ft 298 kts 12°
2026-04-25 11:45 28.52701 -81.53728 10399 ft 314 kts 12°
2026-04-25 11:45 28.54870 -81.53087 10523 ft 330 kts 12°
2026-04-25 11:46 28.56990 -81.52465 10653 ft 346 kts 12°
2026-04-25 11:46 28.59384 -81.51765 10816 ft 363 kts 12°
2026-04-25 11:46 28.61768 -81.51069 11211 ft 372 kts 12°
2026-04-25 11:46 28.64296 -81.50331 11742 ft 378 kts 12°
2026-04-25 11:47 28.66855 -81.49584 12404 ft 380 kts 12°
2026-04-25 11:47 28.69410 -81.48838 13097 ft 382 kts 12°
2026-04-25 11:47 28.72002 -81.48082 13721 ft 386 kts 12°
2026-04-25 11:47 28.74628 -81.47317 14249 ft 390 kts 12°
2026-04-25 11:48 28.77260 -81.46550 14768 ft 393 kts 12°
2026-04-25 11:48 28.79924 -81.45772 15285 ft 396 kts 12°
2026-04-25 11:48 28.82610 -81.44988 15815 ft 399 kts 12°
2026-04-25 11:48 28.85319 -81.44197 16008 ft 403 kts 12°
2026-04-25 11:49 28.88032 -81.43404 16004 ft 403 kts 12°
2026-04-25 11:49 28.90772 -81.42603 16410 ft 407 kts 12°
2026-04-25 11:49 28.93503 -81.41924 16959 ft 406 kts
2026-04-25 11:49 28.96318 -81.41625 17501 ft 407 kts
2026-04-25 11:50 28.99152 -81.41653 17996 ft 408 kts 354°
2026-04-25 11:50 29.01973 -81.41984 18407 ft 411 kts 352°
2026-04-25 11:50 29.04831 -81.42337 18791 ft 414 kts 352°
2026-04-25 11:50 29.07709 -81.42670 19241 ft 416 kts 352°
2026-04-25 11:51 29.10602 -81.42990 19648 ft 418 kts 353°
2026-04-25 11:51 29.13516 -81.43280 20037 ft 420 kts 353°
2026-04-25 11:51 29.16440 -81.43553 20429 ft 423 kts 353°
2026-04-25 11:51 29.19385 -81.43824 20808 ft 425 kts 353°
2026-04-25 11:52 29.22345 -81.44098 21198 ft 428 kts 353°
2026-04-25 11:52 29.25289 -81.44373 21570 ft 430 kts 353°
2026-04-25 11:52 29.28281 -81.44656 21940 ft 433 kts 353°
2026-04-25 11:52 29.31291 -81.44941 22290 ft 435 kts 353°
2026-04-25 11:53 29.34316 -81.45229 22646 ft 438 kts 353°
2026-04-25 11:53 29.37374 -81.45521 23006 ft 440 kts 353°
2026-04-25 11:53 29.40438 -81.45813 23362 ft 443 kts 353°
2026-04-25 11:53 29.43513 -81.46107 23683 ft 445 kts 353°
2026-04-25 11:54 29.46608 -81.46402 23982 ft 447 kts 353°
2026-04-25 11:54 29.49711 -81.46698 24308 ft 448 kts 353°
2026-04-25 11:54 29.55893 -81.47289 24920 ft 451 kts 354°
2026-04-25 11:55 29.59043 -81.47589 25173 ft 454 kts 354°
2026-04-25 11:55 29.62206 -81.47880 25452 ft 456 kts 354°
2026-04-25 11:55 29.65373 -81.48165 25769 ft 457 kts 354°
2026-04-25 11:55 29.68532 -81.48448 26089 ft 458 kts 354°
2026-04-25 11:56 29.71731 -81.48735 26392 ft 460 kts 354°
2026-04-25 11:56 29.74919 -81.49024 26671 ft 462 kts 354°
2026-04-25 11:56 29.78134 -81.49316 26947 ft 463 kts 354°
2026-04-25 11:56 29.81354 -81.49609 27227 ft 465 kts 354°
2026-04-25 11:57 29.84580 -81.49903 27509 ft 466 kts 355°
2026-04-25 11:57 29.87825 -81.50198 27777 ft 468 kts 355°
2026-04-25 11:57 29.91082 -81.50495 28040 ft 469 kts 355°
2026-04-25 11:57 29.94338 -81.50791 28304 ft 471 kts 355°
2026-04-25 11:58 29.97625 -81.51091 28564 ft 472 kts 355°
2026-04-25 11:58 30.00902 -81.51390 28776 ft 474 kts 355°
2026-04-25 11:58 30.04204 -81.51691 29009 ft 475 kts 355°
2026-04-25 11:58 30.07473 -81.52141 29217 ft 476 kts 349°
2026-04-25 11:59 30.10721 -81.53011 29425 ft 477 kts 344°
2026-04-25 11:59 30.13862 -81.54247 29613 ft 476 kts 339°
2026-04-25 11:59 30.17003 -81.55382 29625 ft 476 kts 351°
2026-04-25 12:00 30.23570 -81.54619 29905 ft 481 kts 17°
2026-04-25 12:00 30.26725 -81.53275 30146 ft 479 kts 20°
2026-04-25 12:00 30.32914 -81.50610 30586 ft 478 kts 19°
2026-04-25 12:01 30.36046 -81.49286 30826 ft 478 kts 19°
2026-04-25 12:01 30.39173 -81.47971 31055 ft 477 kts 19°
2026-04-25 12:01 30.42300 -81.46661 31273 ft 477 kts 19°
2026-04-25 12:01 30.45435 -81.45349 31503 ft 477 kts 19°
2026-04-25 12:02 30.51671 -81.42738 31955 ft 476 kts 19°
2026-04-25 12:02 30.54777 -81.41436 32176 ft 475 kts 19°
2026-04-25 12:02 30.57889 -81.40130 32390 ft 475 kts 19°
2026-04-25 12:03 30.60994 -81.38826 32603 ft 475 kts 19°
2026-04-25 12:03 30.64100 -81.37521 32826 ft 474 kts 19°
2026-04-25 12:03 30.67208 -81.36214 33034 ft 474 kts 19°
2026-04-25 12:03 30.70247 -81.34934 33304 ft 472 kts 19°
2026-04-25 12:04 30.73334 -81.33634 33543 ft 471 kts 19°
2026-04-25 12:04 30.76418 -81.32334 33726 ft 471 kts 19°
2026-04-25 12:04 30.79502 -81.31034 33923 ft 471 kts 19°
2026-04-25 12:04 30.82575 -81.29737 34087 ft 471 kts 19°
2026-04-25 12:05 30.85668 -81.28430 34276 ft 470 kts 19°
2026-04-25 12:05 30.88741 -81.27131 34476 ft 468 kts 18°
2026-04-25 12:05 30.91804 -81.25836 34686 ft 467 kts 18°
2026-04-25 12:05 30.94866 -81.24540 34837 ft 467 kts 18°
2026-04-25 12:06 31.01004 -81.21940 34929 ft 470 kts 18°
2026-04-25 12:06 31.07091 -81.19358 34956 ft 467 kts 18°
2026-04-25 12:07 31.13174 -81.16773 34951 ft 464 kts 18°
2026-04-25 12:07 31.19242 -81.14192 34953 ft 462 kts 18°
2026-04-25 12:08 31.25283 -81.11619 34956 ft 462 kts 18°
2026-04-25 12:08 31.31331 -81.09039 34954 ft 462 kts 18°
2026-04-25 12:09 31.37374 -81.06459 34949 ft 463 kts 18°
2026-04-25 12:09 31.43400 -81.03881 34941 ft 464 kts 18°
2026-04-25 12:10 31.49477 -81.01278 34944 ft 466 kts 18°
2026-04-25 12:10 31.55574 -80.98664 34934 ft 467 kts 18°
2026-04-25 12:11 31.61679 -80.96041 34935 ft 468 kts 18°
2026-04-25 12:11 31.67795 -80.93411 34932 ft 468 kts 18°
2026-04-25 12:12 31.72882 -80.91220 34931 ft 468 kts 18°
2026-04-25 12:12 31.80042 -80.88132 34923 ft 468 kts 18°
2026-04-25 12:13 31.86166 -80.85487 34918 ft 468 kts 18°
2026-04-25 12:13 31.92247 -80.82856 34921 ft 468 kts 18°
2026-04-25 12:14 31.98353 -80.80211 34933 ft 467 kts 18°
2026-04-25 12:14 32.04459 -80.77563 34935 ft 467 kts 19°
2026-04-25 12:15 32.10552 -80.74916 34947 ft 467 kts 19°
2026-04-25 12:15 32.16647 -80.72265 34954 ft 467 kts 19°
2026-04-25 12:16 32.22700 -80.69628 34955 ft 467 kts 19°
2026-04-25 12:16 32.28807 -80.66964 34951 ft 467 kts 19°
2026-04-25 12:17 32.34912 -80.64297 34947 ft 468 kts 19°
2026-04-25 12:17 32.41040 -80.61616 34943 ft 468 kts 19°
2026-04-25 12:18 32.47161 -80.58934 34937 ft 469 kts 19°
2026-04-25 12:18 32.53243 -80.56265 34940 ft 469 kts 19°
2026-04-25 12:19 32.62432 -80.52225 34947 ft 470 kts 19°
2026-04-25 12:20 32.67538 -80.49977 34943 ft 470 kts 19°
2026-04-25 12:20 32.73665 -80.47276 34939 ft 470 kts 19°
2026-04-25 12:21 32.79800 -80.44567 34937 ft 470 kts 19°
2026-04-25 12:21 32.85934 -80.41854 34931 ft 470 kts 20°
2026-04-25 12:22 32.92072 -80.39136 34941 ft 470 kts 20°
2026-04-25 12:22 32.98159 -80.36436 34939 ft 470 kts 20°
2026-04-25 12:23 33.04287 -80.33714 34941 ft 470 kts 20°
2026-04-25 12:23 33.10418 -80.30986 34931 ft 470 kts 20°
2026-04-25 12:24 33.16561 -80.28249 34920 ft 470 kts 20°
2026-04-25 12:24 33.22689 -80.25515 34925 ft 470 kts 20°
2026-04-25 12:25 33.28828 -80.22771 34935 ft 470 kts 20°
2026-04-25 12:25 33.34951 -80.20031 34935 ft 471 kts 20°
2026-04-25 12:26 33.41097 -80.17276 34940 ft 471 kts 20°
2026-04-25 12:26 33.47237 -80.14519 34951 ft 472 kts 20°
2026-04-25 12:27 33.53356 -80.11768 34951 ft 472 kts 20°
2026-04-25 12:27 33.59517 -80.08994 34944 ft 472 kts 20°
2026-04-25 12:28 33.65651 -80.06131 34937 ft 473 kts 25°
2026-04-25 12:28 33.71535 -80.02568 34948 ft 473 kts 26°
2026-04-25 12:29 33.77363 -79.98969 34923 ft 474 kts 26°
2026-04-25 12:29 33.83239 -79.95370 34924 ft 475 kts 26°
2026-04-25 12:30 33.89129 -79.91777 34926 ft 475 kts 26°
2026-04-25 12:30 33.95035 -79.88171 34932 ft 476 kts 26°
2026-04-25 12:31 34.00949 -79.84554 34926 ft 476 kts 26°
2026-04-25 12:31 34.06868 -79.80925 34935 ft 476 kts 26°
2026-04-25 12:32 34.12775 -79.77299 34939 ft 477 kts 26°
2026-04-25 12:32 34.18655 -79.73683 34931 ft 477 kts 26°
2026-04-25 12:33 34.24573 -79.70030 34932 ft 477 kts 26°
2026-04-25 12:33 34.30477 -79.66378 34930 ft 477 kts 26°
2026-04-25 12:34 34.36389 -79.62716 34929 ft 477 kts 26°
2026-04-25 12:34 34.42303 -79.59050 34920 ft 478 kts 26°
2026-04-25 12:35 34.48219 -79.55379 34918 ft 478 kts 26°
2026-04-25 12:35 34.54112 -79.51717 34932 ft 478 kts 26°
2026-04-25 12:36 34.59981 -79.47891 34929 ft 479 kts 28°
2026-04-25 12:36 34.65789 -79.43911 34928 ft 479 kts 28°
2026-04-25 12:37 34.71621 -79.39972 34925 ft 479 kts 28°
2026-04-25 12:37 34.77419 -79.36055 34941 ft 479 kts 28°
2026-04-25 12:38 34.83254 -79.32101 34926 ft 480 kts 27°
2026-04-25 12:38 34.89095 -79.28137 34943 ft 480 kts 27°
2026-04-25 12:39 34.94924 -79.24173 34928 ft 480 kts 27°
2026-04-25 12:39 35.00777 -79.20186 34910 ft 480 kts 27°
2026-04-25 12:40 35.06617 -79.16204 34906 ft 481 kts 27°
2026-04-25 12:40 35.12411 -79.12246 34902 ft 481 kts 27°
2026-04-25 12:41 35.18254 -79.08246 34907 ft 481 kts 27°
2026-04-25 12:41 35.24094 -79.04241 34905 ft 481 kts 27°
2026-04-25 12:42 35.29937 -79.00229 34911 ft 481 kts 27°
2026-04-25 12:42 35.35773 -78.96214 34903 ft 481 kts 27°
2026-04-25 12:43 35.41602 -78.92198 34911 ft 481 kts 27°
2026-04-25 12:43 35.50343 -78.86156 34913 ft 481 kts 27°
2026-04-25 12:44 35.56134 -78.82141 34911 ft 481 kts 27°
2026-04-25 12:45 35.64880 -78.76074 34906 ft 480 kts 27°
2026-04-25 12:45 35.73618 -78.70016 34904 ft 481 kts 27°
2026-04-25 12:46 35.79445 -78.65966 34904 ft 481 kts 27°
2026-04-25 12:46 35.85273 -78.61907 34898 ft 481 kts 27°
2026-04-25 12:47 35.91084 -78.57853 34907 ft 482 kts 27°
2026-04-25 12:47 35.96912 -78.53779 34917 ft 482 kts 27°
2026-04-25 12:48 36.02765 -78.49681 34913 ft 482 kts 27°
2026-04-25 12:48 36.08613 -78.45580 34914 ft 483 kts 27°
2026-04-25 12:49 36.14425 -78.41497 34914 ft 483 kts 27°
2026-04-25 12:49 36.20280 -78.37375 34916 ft 484 kts 26°
2026-04-25 12:50 36.26137 -78.33247 34900 ft 485 kts 26°
2026-04-25 12:50 36.31999 -78.29106 34899 ft 486 kts 27°
2026-04-25 12:51 36.37933 -78.25177 34882 ft 483 kts 20°
2026-04-25 12:51 36.44238 -78.22550 34891 ft 480 kts 12°
2026-04-25 12:52 36.50675 -78.20299 34890 ft 480 kts 12°
2026-04-25 12:52 36.57124 -78.18006 34922 ft 481 kts 13°
2026-04-25 12:53 36.63504 -78.15699 34946 ft 481 kts 13°
2026-04-25 12:53 36.69947 -78.13351 34947 ft 481 kts 12°
2026-04-25 12:54 36.76367 -78.11010 34943 ft 481 kts 12°
2026-04-25 12:54 36.82788 -78.08666 34935 ft 481 kts 12°
2026-04-25 12:55 36.88129 -78.06714 34924 ft 481 kts 12°
2026-04-25 12:55 36.95642 -78.03962 34873 ft 481 kts 12°
2026-04-25 12:56 37.02062 -78.01606 34882 ft 481 kts 12°
2026-04-25 12:56 37.08493 -77.99242 34880 ft 481 kts 12°
2026-04-25 12:57 37.14912 -77.96877 34887 ft 481 kts 12°
2026-04-25 12:57 37.21346 -77.94504 34882 ft 481 kts 12°
2026-04-25 12:58 37.27764 -77.92133 34879 ft 481 kts 12°
2026-04-25 12:58 37.34184 -77.89756 34892 ft 480 kts 12°
2026-04-25 12:59 37.40590 -77.87379 34887 ft 480 kts 12°
2026-04-25 12:59 37.46989 -77.85001 34892 ft 480 kts 12°
2026-04-25 13:00 37.49107 -77.84213 34891 ft 480 kts 11°
2026-04-25 13:00 37.59586 -77.79457 34902 ft 484 kts 18°
2026-04-25 13:01 37.65793 -77.76102 34910 ft 485 kts 18°
2026-04-25 13:01 37.72005 -77.72779 34911 ft 485 kts 17°
2026-04-25 13:02 37.78234 -77.69488 34912 ft 485 kts 17°
2026-04-25 13:02 37.84481 -77.66195 34918 ft 486 kts 17°
2026-04-25 13:03 37.90730 -77.62894 34914 ft 486 kts 17°
2026-04-25 13:03 37.96946 -77.59602 34908 ft 487 kts 17°
2026-04-25 13:04 38.03187 -77.56289 34923 ft 486 kts 17°
2026-04-25 13:04 38.09432 -77.52968 34919 ft 485 kts 17°
2026-04-25 13:05 38.14606 -77.50211 34922 ft 485 kts 17°
2026-04-25 13:05 38.20824 -77.46894 34925 ft 484 kts 17°
2026-04-25 13:06 38.27028 -77.43578 34932 ft 484 kts 17°
2026-04-25 13:06 38.33237 -77.40253 34932 ft 483 kts 17°
2026-04-25 13:07 38.39311 -77.36494 34943 ft 492 kts 28°
2026-04-25 13:07 38.44599 -77.30835 34961 ft 503 kts 43°
2026-04-25 13:08 38.49185 -77.24122 34951 ft 506 kts 44°
2026-04-25 13:08 38.53671 -77.17494 34948 ft 506 kts 44°
2026-04-25 13:09 38.58319 -77.10729 34944 ft 505 kts 43°
2026-04-25 13:09 38.62978 -77.03983 34955 ft 505 kts 43°
2026-04-25 13:10 38.67623 -76.97242 34944 ft 505 kts 43°
2026-04-25 13:10 38.72239 -76.90520 34967 ft 506 kts 43°
2026-04-25 13:11 38.76881 -76.83749 34970 ft 506 kts 43°
2026-04-25 13:11 38.81521 -76.76961 34965 ft 505 kts 43°
2026-04-25 13:12 38.86145 -76.70179 34966 ft 505 kts 43°
2026-04-25 13:12 38.89990 -76.64529 34963 ft 505 kts 43°
2026-04-25 13:13 38.95387 -76.56580 34987 ft 505 kts 43°
2026-04-25 13:13 38.99965 -76.49820 34979 ft 505 kts 43°
2026-04-25 13:14 39.04566 -76.43013 34984 ft 505 kts 43°
2026-04-25 13:14 39.09153 -76.36212 34995 ft 504 kts 43°
2026-04-25 13:15 39.13738 -76.29400 35002 ft 504 kts 43°
2026-04-25 13:15 39.18341 -76.22545 35002 ft 504 kts 43°
2026-04-25 13:16 39.22901 -76.15739 35011 ft 504 kts 43°
2026-04-25 13:16 39.27494 -76.08875 35001 ft 504 kts 43°
2026-04-25 13:17 39.32037 -76.02095 34997 ft 504 kts 43°
2026-04-25 13:17 39.36615 -75.95246 34997 ft 504 kts 43°
2026-04-25 13:18 39.41202 -75.88368 34997 ft 504 kts 43°
2026-04-25 13:18 39.45645 -75.81345 35014 ft 507 kts 46°
2026-04-25 13:19 39.49845 -75.73977 35029 ft 509 kts 47°
2026-04-25 13:19 39.53317 -75.67813 35027 ft 510 kts 47°
2026-04-25 13:20 39.58209 -75.59230 35049 ft 509 kts 47°
2026-04-25 13:20 39.62438 -75.51865 35039 ft 508 kts 47°
2026-04-25 13:21 39.66655 -75.44513 35033 ft 507 kts 47°
2026-04-25 13:21 39.70854 -75.37169 35036 ft 506 kts 47°
2026-04-25 13:22 39.75012 -75.29875 35050 ft 505 kts 47°
2026-04-25 13:23 39.81281 -75.18847 35055 ft 504 kts 47°
2026-04-25 13:23 39.85418 -75.11550 35052 ft 504 kts 47°
2026-04-25 13:24 39.89578 -75.04193 35065 ft 504 kts 47°
2026-04-25 13:24 39.93733 -74.96829 35072 ft 504 kts 47°
2026-04-25 13:25 39.97852 -74.89509 35054 ft 503 kts 47°
2026-04-25 13:25 40.01987 -74.82147 35055 ft 503 kts 47°
2026-04-25 13:26 40.06114 -74.74779 35065 ft 503 kts 47°
2026-04-25 13:26 40.10246 -74.67386 35057 ft 503 kts 47°
2026-04-25 13:27 40.14343 -74.60036 35066 ft 503 kts 47°
2026-04-25 13:27 40.18423 -74.52755 35059 ft 501 kts 44°
2026-04-25 13:28 40.23117 -74.46233 35061 ft 489 kts 32°
2026-04-25 13:28 40.28391 -74.40673 35061 ft 487 kts 31°
2026-04-25 13:29 40.33679 -74.35111 35101 ft 488 kts 31°
2026-04-25 13:29 40.38942 -74.29494 35089 ft 488 kts 31°
2026-04-25 13:30 40.46823 -74.21024 35093 ft 487 kts 31°
2026-04-25 13:31 40.54662 -74.12584 35103 ft 487 kts 31°
2026-04-25 13:31 40.59896 -74.06940 35105 ft 486 kts 31°
2026-04-25 13:32 40.65048 -74.01378 35137 ft 486 kts 31°
2026-04-25 13:32 40.70282 -73.95715 35126 ft 486 kts 31°
2026-04-25 13:33 40.75520 -73.90032 35105 ft 485 kts 31°
2026-04-25 13:33 40.80731 -73.84369 35097 ft 485 kts 31°
2026-04-25 13:34 40.86115 -73.79164 35109 ft 474 kts 22°
2026-04-25 13:34 40.91971 -73.75465 35108 ft 461 kts 12°
2026-04-25 13:35 40.98014 -73.72644 35112 ft 460 kts 11°
2026-04-25 13:35 41.04044 -73.69811 35122 ft 460 kts 12°
2026-04-25 13:36 41.10078 -73.66928 35114 ft 461 kts 12°
2026-04-25 13:36 41.16084 -73.64039 35122 ft 461 kts 12°
2026-04-25 13:37 41.22104 -73.61139 35111 ft 460 kts 12°
2026-04-25 13:37 41.28159 -73.58494 35125 ft 453 kts
2026-04-25 13:38 41.34201 -73.57229 35137 ft 442 kts 358°
2026-04-25 13:38 41.40324 -73.56451 35131 ft 441 kts 358°
2026-04-25 13:39 41.46338 -73.55664 35128 ft 440 kts 359°
2026-04-25 13:39 41.52397 -73.54850 35099 ft 439 kts 359°
2026-04-25 13:40 41.58479 -73.54022 35100 ft 439 kts 359°
2026-04-25 13:40 41.64492 -73.53203 35102 ft 438 kts 359°
2026-04-25 13:41 41.70536 -73.52376 35103 ft 438 kts 359°
2026-04-25 13:41 41.76616 -73.51545 35094 ft 439 kts 359°
2026-04-25 13:42 41.82682 -73.50715 35116 ft 440 kts 359°
2026-04-25 13:42 41.88776 -73.49879 35102 ft 441 kts 359°
2026-04-25 13:43 41.94883 -73.49038 35104 ft 441 kts 359°
2026-04-25 13:43 42.00986 -73.48195 35093 ft 441 kts 359°
2026-04-25 13:44 42.07064 -73.47356 35087 ft 441 kts 359°
2026-04-25 13:44 42.13168 -73.46511 35090 ft 441 kts 359°
2026-04-25 13:45 42.19279 -73.45664 35076 ft 441 kts 359°
2026-04-25 13:45 42.25375 -73.44818 35090 ft 440 kts 359°
2026-04-25 13:46 42.31416 -73.43976 35080 ft 441 kts 359°
2026-04-25 13:46 42.37512 -73.43127 35083 ft 441 kts 359°
2026-04-25 13:47 42.43610 -73.42274 35103 ft 441 kts 359°
2026-04-25 13:47 42.49687 -73.41423 35081 ft 441 kts 358°
2026-04-25 13:48 42.55834 -73.40561 35082 ft 441 kts 359°
2026-04-25 13:48 42.61910 -73.39707 35114 ft 441 kts 358°
2026-04-25 13:49 42.68019 -73.38847 35100 ft 441 kts 358°
2026-04-25 13:49 42.74111 -73.37989 35100 ft 440 kts 358°
2026-04-25 13:50 42.79168 -73.37272 35101 ft 439 kts 358°
2026-04-25 13:50 42.85258 -73.36409 35109 ft 440 kts 358°
2026-04-25 13:51 42.91351 -73.35545 35098 ft 439 kts 358°
2026-04-25 13:51 42.97433 -73.34680 35093 ft 440 kts 358°
2026-04-25 13:52 43.03505 -73.33903 35100 ft 438 kts 356°
2026-04-25 13:52 43.09591 -73.33297 35097 ft 438 kts 356°
2026-04-25 13:53 43.15639 -73.32701 35101 ft 438 kts 356°
2026-04-25 13:53 43.21764 -73.32075 35115 ft 439 kts 356°
2026-04-25 13:54 43.27824 -73.31443 35115 ft 439 kts 356°
2026-04-25 13:54 43.33921 -73.30804 35107 ft 440 kts 356°
2026-04-25 13:55 43.40041 -73.30161 35125 ft 439 kts 356°
2026-04-25 13:55 43.46109 -73.29525 35124 ft 438 kts 357°
2026-04-25 13:56 43.52128 -73.28885 35109 ft 436 kts 356°
2026-04-25 13:56 43.58157 -73.28248 35114 ft 434 kts 356°
2026-04-25 13:57 43.64170 -73.27614 35113 ft 432 kts 356°
2026-04-25 13:57 43.70163 -73.26981 35125 ft 431 kts 356°
2026-04-25 13:58 43.76154 -73.26344 35133 ft 431 kts 356°
2026-04-25 13:58 43.82143 -73.25708 35126 ft 431 kts 356°
2026-04-25 13:59 43.88134 -73.25070 35105 ft 433 kts 356°
2026-04-25 13:59 43.94164 -73.24426 35129 ft 436 kts 357°
2026-04-25 14:00 44.00161 -73.23256 35126 ft 452 kts 13°
2026-04-25 14:00 44.03011 -73.21207 35122 ft 470 kts 25°
2026-04-25 14:00 44.05575 -73.18224 35108 ft 489 kts 39°
2026-04-25 14:01 44.09595 -73.10432 35112 ft 501 kts 47°
2026-04-25 14:01 44.13438 -73.02327 35128 ft 495 kts 47°
2026-04-25 14:02 44.17228 -72.94458 35152 ft 487 kts 46°
2026-04-25 14:02 44.21068 -72.86658 35148 ft 488 kts 46°
2026-04-25 14:03 44.24901 -72.78901 35152 ft 489 kts 46°
2026-04-25 14:03 44.28757 -72.71066 35173 ft 490 kts 46°
2026-04-25 14:04 44.32599 -72.63227 35156 ft 490 kts 46°
2026-04-25 14:04 44.36447 -72.55348 35143 ft 490 kts 46°
2026-04-25 14:05 44.40265 -72.47510 35142 ft 490 kts 46°
2026-04-25 14:05 44.44089 -72.39634 35157 ft 488 kts 46°
2026-04-25 14:06 44.47895 -72.31777 35151 ft 486 kts 46°
2026-04-25 14:06 44.51678 -72.23948 35151 ft 484 kts 46°
2026-04-25 14:07 44.55440 -72.16145 35146 ft 483 kts 46°
2026-04-25 14:07 44.59197 -72.08329 35151 ft 481 kts 46°
2026-04-25 14:08 44.62879 -72.00648 35149 ft 481 kts 46°
2026-04-25 14:08 44.66612 -71.92841 35152 ft 482 kts 46°
2026-04-25 14:09 44.70340 -71.85024 35156 ft 482 kts 46°
2026-04-25 14:09 44.74075 -71.77167 35160 ft 483 kts 46°
2026-04-25 14:10 44.77805 -71.69302 35154 ft 483 kts 46°
2026-04-25 14:10 44.81530 -71.61421 35157 ft 482 kts 46°
2026-04-25 14:11 44.85211 -71.53614 35156 ft 482 kts 46°
2026-04-25 14:11 44.88923 -71.45721 35157 ft 482 kts 46°
2026-04-25 14:12 44.92619 -71.37837 35181 ft 481 kts 46°
2026-04-25 14:12 44.96307 -71.29953 35171 ft 481 kts 46°
2026-04-25 14:13 45.00005 -71.22026 35167 ft 482 kts 46°
2026-04-25 14:13 45.03674 -71.14141 35173 ft 483 kts 47°
2026-04-25 14:14 45.07363 -71.06186 35164 ft 484 kts 47°
2026-04-25 14:14 45.11168 -70.98338 35158 ft 477 kts 41°
2026-04-25 14:15 45.15580 -70.91478 35155 ft 470 kts 37°
2026-04-25 14:15 45.20021 -70.84805 35160 ft 470 kts 37°
2026-04-25 14:16 45.24502 -70.78002 35159 ft 471 kts 38°
2026-04-25 14:16 45.28966 -70.71160 35149 ft 472 kts 38°
2026-04-25 14:17 45.33423 -70.64295 35153 ft 474 kts 39°
2026-04-25 14:17 45.37896 -70.57388 35150 ft 474 kts 39°
2026-04-25 14:18 45.42367 -70.50467 35153 ft 475 kts 39°
2026-04-25 14:18 45.46829 -70.43544 35157 ft 475 kts 39°
2026-04-25 14:19 45.51299 -70.36593 35161 ft 476 kts 40°
2026-04-25 14:19 45.55779 -70.29608 35142 ft 477 kts 40°
2026-04-25 14:20 45.60252 -70.22614 35136 ft 477 kts 40°
2026-04-25 14:20 45.64698 -70.15646 35163 ft 477 kts 41°
2026-04-25 14:21 45.69170 -70.08624 35138 ft 478 kts 41°
2026-04-25 14:21 45.73651 -70.01561 35135 ft 478 kts 41°
2026-04-25 14:22 45.78105 -69.94526 35137 ft 478 kts 42°
2026-04-25 14:22 45.82572 -69.87451 35143 ft 478 kts 42°
2026-04-25 14:23 45.87029 -69.80376 35138 ft 478 kts 43°
2026-04-25 14:23 45.91489 -69.73279 35125 ft 478 kts 43°
2026-04-25 14:24 45.95937 -69.66181 35129 ft 478 kts 43°
2026-04-25 14:24 46.00354 -69.59114 35132 ft 478 kts 43°
2026-04-25 14:25 46.04802 -69.51979 35130 ft 477 kts 43°
2026-04-25 14:25 46.09230 -69.44858 35139 ft 477 kts 43°
2026-04-25 14:26 46.13661 -69.37713 35139 ft 477 kts 44°
2026-04-25 14:26 46.18056 -69.30608 35142 ft 477 kts 44°
2026-04-25 14:27 46.22475 -69.23446 35145 ft 477 kts 44°
2026-04-25 14:27 46.26894 -69.16265 35143 ft 477 kts 44°
2026-04-25 14:28 46.31296 -69.09095 35159 ft 477 kts 45°
2026-04-25 14:28 46.35674 -69.01941 35135 ft 477 kts 45°
2026-04-25 14:29 46.40080 -68.94723 35136 ft 477 kts 45°
2026-04-25 14:29 46.44467 -68.87519 35138 ft 476 kts 45°
2026-04-25 14:30 46.48857 -68.80291 35137 ft 476 kts 45°
2026-04-25 14:30 46.55406 -68.69470 35129 ft 476 kts 46°
2026-04-25 14:31 46.59773 -68.62231 35124 ft 475 kts 46°
2026-04-25 14:31 46.64111 -68.55019 35129 ft 475 kts 46°
2026-04-25 14:32 46.68455 -68.47783 35122 ft 474 kts 46°
2026-04-25 14:32 46.72786 -68.40546 35116 ft 474 kts 47°
2026-04-25 14:33 46.77115 -68.33294 35134 ft 474 kts 47°
2026-04-25 14:33 46.81440 -68.26030 35112 ft 473 kts 47°
2026-04-25 14:34 46.85028 -68.19987 35099 ft 473 kts 47°
2026-04-25 14:34 46.90036 -68.11532 35091 ft 473 kts 47°
2026-04-25 14:35 46.93645 -68.05422 35096 ft 473 kts 47°
2026-04-25 14:35 46.97955 -67.98108 35099 ft 473 kts 47°
2026-04-25 14:36 47.02224 -67.90843 35091 ft 472 kts 47°
2026-04-25 14:36 47.06498 -67.83550 35102 ft 471 kts 47°
2026-04-25 14:37 47.10771 -67.76240 35100 ft 471 kts 48°
2026-04-25 14:37 47.15016 -67.68957 35103 ft 469 kts 48°
2026-04-25 14:38 47.19255 -67.61665 35101 ft 468 kts 48°
2026-04-25 14:38 47.23481 -67.54377 35096 ft 467 kts 48°
2026-04-25 14:39 47.27689 -67.47100 35097 ft 466 kts 49°
2026-04-25 14:39 47.31872 -67.39845 35093 ft 464 kts 49°
2026-04-25 14:40 47.36024 -67.32628 35089 ft 462 kts 49°
2026-04-25 14:40 47.40112 -67.25339 35088 ft 461 kts 50°
2026-04-25 14:41 47.44093 -67.17888 35094 ft 461 kts 51°
2026-04-25 14:41 47.48052 -67.10427 35096 ft 461 kts 51°
2026-04-25 14:42 47.51349 -67.04228 35089 ft 461 kts 51°
2026-04-25 14:42 47.55995 -66.95506 35086 ft 461 kts 51°
2026-04-25 14:43 47.59966 -66.88039 35083 ft 461 kts 51°
2026-04-25 14:43 47.63934 -66.80553 35085 ft 462 kts 51°
2026-04-25 14:44 47.67901 -66.73051 35091 ft 462 kts 51°
2026-04-25 14:44 47.71835 -66.65587 35095 ft 463 kts 51°
2026-04-25 14:45 47.75803 -66.58040 35090 ft 463 kts 51°
2026-04-25 14:45 47.79770 -66.50472 35073 ft 463 kts 51°
2026-04-25 14:46 47.83641 -66.43067 35080 ft 463 kts 51°
2026-04-25 14:46 47.87583 -66.35508 35073 ft 462 kts 51°
2026-04-25 14:47 47.90854 -66.29217 35063 ft 462 kts 51°
2026-04-25 14:47 47.95425 -66.20404 35069 ft 461 kts 51°
2026-04-25 14:48 47.99344 -66.12825 35062 ft 461 kts 51°
2026-04-25 14:48 48.03246 -66.05256 35064 ft 460 kts 51°
2026-04-25 14:49 48.07149 -65.97666 35050 ft 460 kts 51°
2026-04-25 14:49 48.11048 -65.90062 35049 ft 460 kts 51°
2026-04-25 14:50 48.14925 -65.82479 35201 ft 460 kts 51°
2026-04-25 14:50 48.16876 -65.78655 35325 ft 461 kts 51°
2026-04-25 14:50 48.18833 -65.74815 35310 ft 464 kts 51°
2026-04-25 14:51 48.22741 -65.67128 35532 ft 464 kts 52°
2026-04-25 14:51 48.24696 -65.63273 35766 ft 463 kts 51°
2026-04-25 14:51 48.26639 -65.59437 36078 ft 460 kts 51°
2026-04-25 14:52 48.28569 -65.55622 36357 ft 457 kts 51°
2026-04-25 14:52 48.30492 -65.51815 36488 ft 459 kts 51°
2026-04-25 14:52 48.32429 -65.47974 36628 ft 460 kts 51°
2026-04-25 14:52 48.33709 -65.45434 36698 ft 460 kts 51°
2026-04-25 14:53 48.36289 -65.40306 36880 ft 461 kts 51°
2026-04-25 14:53 48.38220 -65.36462 36970 ft 462 kts 51°
2026-04-25 14:53 48.42096 -65.28732 37031 ft 464 kts 51°
2026-04-25 14:54 48.45951 -65.21020 37039 ft 463 kts 51°
2026-04-25 14:54 48.49827 -65.13243 37031 ft 463 kts 51°
2026-04-25 14:55 48.53701 -65.05448 37042 ft 462 kts 51°
2026-04-25 14:55 48.57548 -64.97684 37040 ft 461 kts 51°
2026-04-25 14:56 48.61384 -64.89921 37050 ft 461 kts 51°
2026-04-25 14:56 48.65187 -64.82202 37037 ft 460 kts 52°
2026-04-25 14:57 48.69020 -64.74400 37034 ft 460 kts 51°
2026-04-25 14:57 48.72828 -64.66629 37044 ft 459 kts 51°
2026-04-25 14:58 48.76635 -64.58835 37039 ft 461 kts 51°
2026-04-25 14:58 48.80451 -64.51001 37042 ft 463 kts 51°
2026-04-25 14:59 48.84251 -64.43171 37034 ft 464 kts 52°
2026-04-25 14:59 48.88055 -64.35318 37038 ft 465 kts 51°
2026-04-25 15:00 48.91876 -64.27403 37047 ft 464 kts 52°
2026-04-25 15:00 48.95685 -64.19488 37025 ft 463 kts 52°
2026-04-25 15:01 48.99484 -64.11570 37020 ft 462 kts 52°
2026-04-25 15:01 49.03280 -64.03639 37032 ft 462 kts 52°
2026-04-25 15:02 49.07068 -63.95698 37023 ft 463 kts 52°
2026-04-25 15:02 49.10835 -63.87782 37012 ft 464 kts 52°
2026-04-25 15:03 49.14625 -63.79792 36993 ft 465 kts 52°
2026-04-25 15:03 49.18415 -63.71777 36991 ft 465 kts 52°
2026-04-25 15:04 49.22203 -63.63744 36993 ft 466 kts 52°
2026-04-25 15:04 49.25991 -63.55684 36987 ft 467 kts 52°
2026-04-25 15:05 49.29787 -63.47584 36980 ft 469 kts 52°
2026-04-25 15:06 49.35502 -63.35342 36982 ft 470 kts 52°
2026-04-25 15:06 49.39300 -63.27175 36976 ft 470 kts 52°
2026-04-25 15:07 49.43069 -63.19043 36973 ft 466 kts 52°
2026-04-25 15:07 49.46813 -63.10941 36989 ft 464 kts 52°
2026-04-25 15:08 49.50540 -63.02861 36983 ft 463 kts 52°
2026-04-25 15:08 49.54262 -62.94759 36971 ft 464 kts 53°
2026-04-25 15:09 49.58002 -62.86595 36976 ft 469 kts 53°
2026-04-25 15:09 49.63657 -62.74204 36974 ft 476 kts 53°
2026-04-25 15:10 49.67468 -62.65816 36960 ft 479 kts 53°
2026-04-25 15:11 49.73216 -62.53119 36947 ft 477 kts 53°
2026-04-25 15:11 49.76939 -62.44857 36947 ft 470 kts 53°
2026-04-25 15:12 49.82525 -62.32420 36934 ft 467 kts 53°
2026-04-25 15:12 49.84999 -62.26895 36934 ft 467 kts 53°
2026-04-25 15:13 49.91757 -62.11738 36933 ft 463 kts 53°
2026-04-25 15:14 49.95396 -62.03539 36917 ft 460 kts 53°
2026-04-25 15:14 49.99007 -61.95381 36906 ft 458 kts 53°
2026-04-25 15:15 50.02611 -61.87214 36922 ft 458 kts 53°
2026-04-25 15:15 50.06184 -61.79093 36929 ft 461 kts 53°
2026-04-25 15:16 50.09818 -61.70807 36934 ft 466 kts 53°
2026-04-25 15:16 50.15333 -61.58178 36922 ft 468 kts 54°
2026-04-25 15:17 50.20768 -61.45669 36901 ft 460 kts 53°
2026-04-25 15:18 50.24313 -61.37481 36904 ft 457 kts 53°
2026-04-25 15:18 50.29638 -61.25135 36905 ft 456 kts 54°
2026-04-25 15:19 50.32006 -61.19627 36904 ft 457 kts 54°
2026-04-25 15:19 50.36737 -61.08585 36898 ft 460 kts 54°
2026-04-25 15:20 50.39697 -61.01655 36904 ft 462 kts 54°
2026-04-25 15:20 50.43282 -60.93234 36907 ft 464 kts 54°
2026-04-25 15:21 50.46861 -60.84800 36903 ft 465 kts 54°
2026-04-25 15:21 50.50427 -60.76369 36908 ft 466 kts 54°
2026-04-25 15:22 50.54021 -60.67847 36901 ft 466 kts 54°
2026-04-25 15:22 50.57587 -60.59361 36900 ft 465 kts 54°
2026-04-25 15:23 50.61111 -60.50949 36903 ft 463 kts 55°
2026-04-25 15:23 50.64636 -60.42507 36916 ft 463 kts 55°
2026-04-25 15:24 50.68160 -60.34041 36905 ft 462 kts 55°
2026-04-25 15:24 50.71090 -60.26979 36893 ft 462 kts 55°
2026-04-25 15:25 50.75195 -60.17058 36899 ft 461 kts 55°
2026-04-25 15:25 50.78695 -60.08568 36893 ft 462 kts 55°
2026-04-25 15:26 50.82180 -60.00083 36904 ft 462 kts 55°
2026-04-25 15:26 50.85691 -59.91511 36879 ft 461 kts 55°
2026-04-25 15:27 50.89152 -59.83029 36879 ft 460 kts 55°
2026-04-25 15:28 50.94354 -59.70234 36882 ft 460 kts 55°
2026-04-25 15:28 50.97810 -59.61696 36886 ft 459 kts 55°
2026-04-25 15:29 51.01258 -59.53151 36887 ft 459 kts 55°
2026-04-25 15:29 51.04676 -59.44655 36868 ft 459 kts 56°
2026-04-25 15:30 51.08108 -59.36092 36869 ft 459 kts 56°
2026-04-25 15:30 51.11538 -59.27509 36874 ft 459 kts 56°
2026-04-25 15:31 51.14956 -59.18924 36876 ft 460 kts 56°
2026-04-25 15:31 51.18380 -59.10298 36871 ft 460 kts 56°
2026-04-25 15:32 51.21780 -59.01701 36864 ft 461 kts 56°
2026-04-25 15:32 51.25199 -58.93031 36856 ft 461 kts 56°
2026-04-25 15:33 51.30311 -58.80008 36863 ft 461 kts 56°
2026-04-25 15:33 51.33704 -58.71329 36858 ft 460 kts 56°
2026-04-25 15:34 51.37086 -58.62650 36832 ft 460 kts 56°
2026-04-25 15:34 51.39861 -58.55505 36834 ft 459 kts 56°
2026-04-25 15:35 51.45425 -58.41118 36844 ft 460 kts 57°
2026-04-25 15:36 51.50475 -58.27993 36845 ft 461 kts 57°
2026-04-25 15:36 51.53843 -58.19201 36830 ft 462 kts 57°
2026-04-25 15:37 51.57188 -58.10439 36823 ft 462 kts 57°
2026-04-25 15:37 51.60539 -58.01634 36834 ft 461 kts 57°
2026-04-25 15:38 51.63845 -57.92913 36846 ft 460 kts 57°
2026-04-25 15:38 51.67178 -57.84094 36834 ft 461 kts 57°
2026-04-25 15:39 51.70508 -57.75254 36843 ft 462 kts 57°
2026-04-25 15:39 51.73845 -57.66364 36818 ft 463 kts 58°
2026-04-25 15:40 51.76048 -57.60475 36820 ft 463 kts 58°
2026-04-25 15:40 51.80462 -57.48634 36827 ft 461 kts 58°
2026-04-25 15:41 51.83759 -57.39755 36827 ft 460 kts 58°
2026-04-25 15:41 51.87046 -57.30874 36830 ft 460 kts 58°
2026-04-25 15:42 51.90331 -57.21969 36812 ft 461 kts 58°
2026-04-25 15:42 51.93616 -57.13028 36834 ft 462 kts 58°
2026-04-25 15:43 51.96902 -57.04053 36824 ft 463 kts 58°
2026-04-25 15:43 52.00175 -56.95084 36834 ft 463 kts 58°
2026-04-25 15:44 52.03419 -56.86162 36838 ft 462 kts 59°
2026-04-25 15:44 52.06680 -56.77162 36814 ft 463 kts 59°
2026-04-25 15:45 52.09945 -56.68120 36823 ft 464 kts 59°
2026-04-25 15:45 52.12124 -56.62065 36821 ft 464 kts 59°
2026-04-25 15:46 52.16454 -56.49993 36850 ft 466 kts 59°
2026-04-25 15:46 52.19696 -56.40915 36829 ft 467 kts 59°
2026-04-25 15:47 52.22960 -56.31744 36841 ft 467 kts 59°
2026-04-25 15:47 52.26194 -56.22622 36829 ft 466 kts 59°
2026-04-25 15:48 52.29437 -56.13440 36812 ft 466 kts 59°
2026-04-25 15:48 52.32672 -56.04248 36822 ft 466 kts 59°
2026-04-25 15:49 52.35892 -55.95071 36826 ft 466 kts 60°
2026-04-25 15:49 52.38950 -55.85707 36795 ft 467 kts 66°
2026-04-25 15:50 52.41029 -55.75736 36794 ft 464 kts 76°
2026-04-25 15:50 52.42345 -55.65428 36816 ft 460 kts 77°
2026-04-25 15:51 52.43188 -55.58565 36798 ft 459 kts 77°
2026-04-25 15:51 52.44877 -55.44931 36797 ft 458 kts 77°
2026-04-25 15:52 52.46151 -55.34710 36792 ft 458 kts 77°
2026-04-25 15:52 52.47425 -55.24454 36757 ft 459 kts 77°
2026-04-25 15:53 52.48687 -55.14238 36758 ft 460 kts 77°
2026-04-25 15:53 52.49950 -55.03912 36748 ft 461 kts 77°
2026-04-25 15:54 52.51203 -54.93583 36742 ft 461 kts 77°
2026-04-25 15:54 52.52450 -54.83232 36738 ft 461 kts 77°
2026-04-25 15:55 52.53686 -54.72891 36733 ft 461 kts 77°
2026-04-25 15:55 52.54910 -54.62563 36719 ft 460 kts 77°
2026-04-25 15:56 52.56116 -54.52311 36719 ft 459 kts 77°
2026-04-25 15:56 52.57320 -54.41995 36717 ft 460 kts 78°
2026-04-25 15:57 52.58514 -54.31687 36705 ft 460 kts 78°
2026-04-25 15:57 52.59707 -54.21297 36707 ft 462 kts 78°
2026-04-25 15:58 52.60890 -54.10908 36692 ft 462 kts 78°
2026-04-25 15:58 52.62065 -54.00498 36695 ft 463 kts 78°
2026-04-25 15:59 52.63225 -53.90146 36690 ft 462 kts 78°
2026-04-25 15:59 52.64375 -53.79790 36672 ft 459 kts 78°
2026-04-25 16:00 52.65142 -53.72835 36675 ft 461 kts 78°
2026-04-25 16:00 52.66667 -53.58920 36677 ft 466 kts 78°
2026-04-25 16:01 52.67811 -53.48350 36667 ft 468 kts 79°
2026-04-25 16:01 52.68944 -53.37788 36662 ft 466 kts 79°
2026-04-25 16:02 52.70054 -53.27348 36662 ft 464 kts 79°
2026-04-25 16:02 52.71157 -53.16893 36651 ft 463 kts 79°
2026-04-25 16:03 52.72252 -53.06417 36652 ft 463 kts 79°
2026-04-25 16:03 52.73340 -52.95913 36652 ft 465 kts 79°
2026-04-25 16:04 52.74416 -52.85430 36642 ft 465 kts 79°
2026-04-25 16:04 52.75490 -52.74878 36657 ft 466 kts 79°
2026-04-25 16:05 52.76553 -52.64327 36643 ft 466 kts 79°
2026-04-25 16:06 52.78134 -52.48465 36633 ft 466 kts 80°
2026-04-25 16:06 52.78998 -52.39697 36625 ft 466 kts 80°
2026-04-25 16:07 52.80199 -52.27389 36610 ft 466 kts 80°
2026-04-25 16:07 52.81220 -52.16811 36613 ft 465 kts 80°
2026-04-25 16:08 52.82058 -52.08059 36607 ft 465 kts 80°
2026-04-25 16:08 52.83061 -51.97489 36610 ft 465 kts 81°
2026-04-25 16:09 52.84054 -51.86921 36600 ft 466 kts 81°
2026-04-25 16:09 52.85043 -51.76297 36600 ft 466 kts 81°
2026-04-25 16:10 52.86019 -51.65692 36601 ft 467 kts 81°
2026-04-25 16:10 52.86981 -51.55135 36592 ft 466 kts 81°
2026-04-25 16:11 52.87937 -51.44543 36599 ft 465 kts 81°
2026-04-25 16:11 52.88881 -51.33974 36593 ft 463 kts 81°
2026-04-25 16:12 52.89814 -51.23412 36590 ft 462 kts 81°
2026-04-25 16:12 52.90735 -51.12886 36599 ft 462 kts 81°
2026-04-25 16:13 52.91651 -51.02300 36594 ft 465 kts 81°
2026-04-25 16:13 52.92556 -50.91729 36577 ft 467 kts 82°
2026-04-25 16:14 52.93455 -50.81111 36589 ft 462 kts 82°
2026-04-25 16:14 52.94337 -50.70580 36578 ft 460 kts 82°
2026-04-25 16:15 52.95210 -50.60035 36591 ft 461 kts 82°
2026-04-25 16:15 52.96072 -50.49515 36593 ft 461 kts 82°
2026-04-25 16:16 52.96923 -50.39009 36588 ft 463 kts 82°
2026-04-25 16:16 52.97775 -50.28375 36585 ft 466 kts 82°
2026-04-25 16:17 52.98622 -50.17682 36572 ft 466 kts 82°
2026-04-25 16:17 52.99457 -50.07023 36578 ft 464 kts 82°
2026-04-25 16:18 53.00444 -49.96484 36582 ft 464 kts 77°
2026-04-25 16:18 53.01952 -49.86113 36578 ft 464 kts 76°
2026-04-25 16:19 53.03480 -49.75681 36576 ft 464 kts 76°
2026-04-25 16:19 53.04959 -49.65393 36573 ft 464 kts 77°
2026-04-25 16:20 53.07144 -49.49908 36570 ft 464 kts 77°
2026-04-25 16:21 53.09314 -49.34348 36565 ft 464 kts 77°
2026-04-25 16:21 53.10761 -49.23885 36563 ft 464 kts 77°
2026-04-25 16:22 53.12199 -49.13419 36560 ft 464 kts 77°
2026-04-25 16:22 53.13628 -49.02945 36556 ft 464 kts 77°
2026-04-25 16:23 53.15048 -48.92461 36562 ft 465 kts 78°
2026-04-25 16:23 53.16464 -48.81927 36563 ft 465 kts 78°
2026-04-25 16:24 53.17867 -48.71425 36569 ft 465 kts 78°
2026-04-25 16:24 53.19254 -48.60959 36569 ft 465 kts 78°
2026-04-25 16:25 53.20640 -48.50422 36567 ft 465 kts 78°
2026-04-25 16:25 53.22018 -48.39875 36562 ft 465 kts 78°
2026-04-25 16:26 53.23387 -48.29316 36566 ft 465 kts 78°
2026-04-25 16:26 53.24736 -48.18832 36574 ft 466 kts 79°
2026-04-25 16:27 53.26087 -48.08254 36570 ft 466 kts 79°
2026-04-25 16:27 53.27430 -47.97656 36573 ft 466 kts 78°
2026-04-25 16:28 53.28766 -47.87037 36572 ft 466 kts 79°
2026-04-25 16:28 53.30091 -47.76427 36579 ft 467 kts 79°
2026-04-25 16:29 53.31401 -47.65850 36570 ft 467 kts 79°
2026-04-25 16:29 53.32710 -47.55196 36571 ft 468 kts 79°
2026-04-25 16:30 53.34011 -47.44523 36578 ft 468 kts 79°
2026-04-25 16:30 53.35302 -47.33846 36574 ft 467 kts 79°
2026-04-25 16:31 53.36581 -47.23193 36568 ft 467 kts 79°
2026-04-25 16:31 53.37854 -47.12504 36575 ft 467 kts 80°
2026-04-25 16:32 53.39115 -47.01819 36582 ft 468 kts 80°
2026-04-25 16:32 53.40368 -46.91114 36579 ft 469 kts 80°
2026-04-25 16:33 53.41610 -46.80419 36578 ft 470 kts 80°
2026-04-25 16:33 53.42853 -46.69630 36578 ft 470 kts 80°
2026-04-25 16:34 53.44090 -46.58805 36577 ft 470 kts 80°
2026-04-25 16:34 53.45307 -46.48060 36584 ft 470 kts 80°
2026-04-25 16:35 53.46512 -46.37324 36579 ft 470 kts 80°
2026-04-25 16:35 53.47697 -46.26684 36581 ft 469 kts 81°
2026-04-25 16:36 53.48888 -46.15889 36576 ft 469 kts 81°
2026-04-25 16:36 53.50069 -46.05099 36587 ft 469 kts 81°
2026-04-25 16:37 53.51231 -45.94378 36586 ft 470 kts 81°
2026-04-25 16:37 53.52396 -45.83543 36576 ft 471 kts 81°
2026-04-25 16:38 53.53552 -45.72692 36582 ft 471 kts 81°
2026-04-25 16:38 53.54697 -45.61844 36589 ft 471 kts 81°
2026-04-25 16:39 53.55834 -45.50974 36588 ft 472 kts 81°
2026-04-25 16:39 53.56961 -45.40097 36581 ft 471 kts 81°
2026-04-25 16:40 53.58072 -45.29279 36595 ft 472 kts 82°
2026-04-25 16:40 53.59180 -45.18387 36595 ft 472 kts 82°
2026-04-25 16:41 53.60278 -45.07493 36591 ft 472 kts 82°
2026-04-25 16:41 53.61908 -44.91123 36594 ft 473 kts 82°
2026-04-25 16:42 53.62984 -44.80182 36596 ft 473 kts 82°
2026-04-25 16:42 53.64049 -44.69248 36591 ft 473 kts 82°
2026-04-25 16:43 53.65105 -44.58303 36611 ft 473 kts 82°
2026-04-25 16:43 53.66146 -44.47393 36603 ft 474 kts 82°
2026-04-25 16:44 53.67185 -44.36406 36619 ft 474 kts 83°
2026-04-25 16:44 53.68208 -44.25473 36605 ft 474 kts 83°
2026-04-25 16:45 53.69225 -44.14490 36616 ft 474 kts 83°
2026-04-25 16:45 53.70233 -44.03486 36617 ft 474 kts 83°
2026-04-25 16:46 53.71233 -43.92463 36626 ft 474 kts 83°
2026-04-25 16:46 53.71890 -43.85151 36621 ft 475 kts 83°
2026-04-25 16:47 53.73194 -43.70490 36629 ft 474 kts 83°
2026-04-25 16:47 53.74161 -43.59474 36622 ft 474 kts 83°
2026-04-25 16:48 53.75119 -43.48446 36631 ft 474 kts 84°
2026-04-25 16:48 53.76065 -43.37428 36639 ft 474 kts 84°
2026-04-25 16:49 53.77006 -43.26359 36647 ft 475 kts 84°
2026-04-25 16:49 53.77928 -43.15376 36648 ft 475 kts 84°
2026-04-25 16:50 53.78847 -43.04314 36622 ft 475 kts 84°
2026-04-25 16:50 53.79756 -42.93236 36649 ft 475 kts 84°
2026-04-25 16:51 53.80656 -42.82144 36655 ft 475 kts 84°
2026-04-25 16:51 53.81250 -42.74740 36655 ft 476 kts 84°
2026-04-25 16:52 53.81985 -42.65505 36663 ft 476 kts 84°